Weather History for KD25 - January, 2014

Change the Weather History Date:

Thursday, January 23, 2014

  Actual Average (KARV) Record (KARV)
Temperature  
Mean Temperature -6 °F -  
Max Temperature 0 °F 24 °F 54 °F (1942)
Min Temperature -12 °F 3 °F -36 °F (1935)
Degree Days  
Heating Degree Days 71    
Moisture  
Dew Point -12 °F    
Average Humidity 71    
Maximum Humidity 81    
Minimum Humidity 60    
Precipitation  
Precipitation 0.00 in - - ()
Sea Level Pressure  
Sea Level Pressure 30.31 in    
Wind  
Wind Speed 9 mph (WNW)    
Max Wind Speed 15 mph    
Max Gust Speed 24 mph    
Visibility 9 miles    
Events Snow    
Averages and records for this station are not official NWS values.
T = Trace of Precipitation, MM = Missing Value Source: NWS Daily Summary

Daily Weather History Graph

Daily Weather History Graph

Search for Another Location

Airport or City:

Trip Planner

Search our weather history database for the weather conditions in past years. The results will help you decide how hot, cold, wet, or windy it might be!

Date:

Astronomy

Jan. 23, 2014 Rise Set
Actual Time 7:31 AM CST 4:51 PM CST
Civil Twilight 6:58 AM CST 5:24 PM CST
Nautical Twilight 6:22 AM CST 6:00 PM CST
Astronomical Twilight 5:46 AM CST 6:36 PM CST
Moon No Moon Rise 10:41 AM CST (1/23)
Length of Visible Light 10h 25m
Length of Day
9h 19m
Waning Gibbous, 55% of the Moon is Illuminated
Jan 23
Waning Gibbous
Jan 23
Last Quarter
Jan 30
New
Feb 6
First Quarter
Feb 14
Full

Hourly Weather History & Observations

Time (CST) Temp. Windchill Dew Point Humidity Pressure Visibility Wind Dir Wind Speed Gust Speed Precip Events Conditions
12:15 AM -0.9 °F -20.6 °F -7.6 °F 73% 30.16 in 7.0 mi NNW 15.0 mph 24.2 mph N/A   Overcast
12:35 AM -1.1 °F -20.8 °F -7.8 °F 73% 30.16 in 5.0 mi North 15.0 mph 20.7 mph N/A Snow Light Snow
12:55 AM -1.3 °F -17.8 °F -7.6 °F 75% 30.17 in 4.0 mi North 10.4 mph 24.2 mph N/A Snow Light Snow
1:15 AM -1.3 °F -17.8 °F -7.6 °F 75% 30.18 in 3.0 mi North 10.4 mph 24.2 mph N/A Snow Light Snow
1:35 AM -1.3 °F -17.8 °F -7.2 °F 76% 30.20 in 4.0 mi North 10.4 mph 18.4 mph N/A Snow Light Snow
1:55 AM -1.3 °F -18.7 °F -7.2 °F 76% 30.21 in 4.0 mi North 11.5 mph 21.9 mph N/A Snow Light Snow
2:15 AM -1.3 °F -20.3 °F -7.6 °F 75% 30.23 in 5.0 mi North 13.8 mph 19.6 mph N/A Snow Light Snow
2:35 AM -1.7 °F -20.0 °F -8.1 °F 74% 30.24 in 7.0 mi North 12.7 mph 20.7 mph N/A   Overcast
2:55 AM -2.2 °F -19.9 °F -8.5 °F 75% 30.25 in 7.0 mi North 11.5 mph 20.7 mph N/A   Overcast
3:15 AM -2.6 °F -19.4 °F -8.9 °F 74% 30.25 in 10.0 mi North 10.4 mph 17.3 mph N/A   Scattered Clouds
3:35 AM -3.1 °F -17.9 °F -9.2 °F 75% 30.27 in 10.0 mi North 8.1 mph - N/A   Clear
3:55 AM -3.5 °F -19.5 °F -9.4 °F 76% 30.28 in 10.0 mi North 9.2 mph - N/A   Clear
4:15 AM -4.0 °F -19.0 °F -9.6 °F 77% 30.29 in 10.0 mi North 8.1 mph - N/A   Clear
4:35 AM -4.2 °F -18.0 °F -9.4 °F 78% 30.31 in 10.0 mi NNW 6.9 mph - N/A   Clear
4:55 AM -4.5 °F -18.4 °F -9.8 °F 78% 30.31 in 10.0 mi North 6.9 mph - N/A   Clear
5:15 AM -4.9 °F -21.3 °F -10.3 °F 78% 30.32 in 10.0 mi NNW 9.2 mph - N/A   Clear
5:35 AM -5.3 °F -19.3 °F -10.3 °F 79% 30.33 in 10.0 mi NNW 6.9 mph - N/A   Clear
5:55 AM -5.3 °F -19.3 °F -9.8 °F 81% 30.35 in 10.0 mi North 6.9 mph - N/A   Clear
6:15 AM -5.3 °F -20.6 °F -9.8 °F 81% 30.35 in 10.0 mi North 8.1 mph - N/A   Clear
6:35 AM -5.6 °F -16.5 °F -10.1 °F 81% 30.37 in 10.0 mi NNW 4.6 mph - N/A   Clear
6:55 AM -6.0 °F -16.9 °F -10.5 °F 81% 30.38 in 10.0 mi North 4.6 mph - N/A   Clear
7:15 AM -5.8 °F -18.4 °F -10.8 °F 79% 30.38 in 10.0 mi North 5.8 mph - N/A   Mostly Cloudy
7:35 AM -4.9 °F -20.1 °F -10.5 °F 77% 30.39 in 7.0 mi NNW 8.1 mph - N/A   Mostly Cloudy
7:55 AM -4.2 °F -16.5 °F -10.5 °F 74% 30.39 in 7.0 mi NNW 5.8 mph - N/A   Overcast
8:15 AM -2.9 °F -11.2 °F -9.4 °F 74% 30.40 in 7.0 mi North 3.5 mph - N/A   Overcast
8:35 AM -3.1 °F -20.1 °F -10.1 °F 72% 30.40 in 7.0 mi North 10.4 mph - N/A   Overcast
8:55 AM -3.1 °F -16.7 °F -10.3 °F 71% 30.41 in 7.0 mi NNW 6.9 mph - N/A   Overcast
9:15 AM -3.8 °F -16.1 °F -9.6 °F 76% 30.42 in 2.0 mi WNW 5.8 mph - N/A Snow Light Snow
9:35 AM -3.1 °F -17.9 °F -8.9 °F 76% 30.42 in 2.5 mi NW 8.1 mph - N/A   Haze
9:55 AM -3.3 °F -18.2 °F -9.8 °F 74% 30.43 in 7.0 mi NNW 8.1 mph - N/A   Overcast
10:15 AM -3.5 °F -19.5 °F -10.7 °F 71% 30.43 in 7.0 mi NNW 9.2 mph - N/A   Overcast
10:35 AM -2.6 °F -17.3 °F -10.7 °F 68% 30.43 in 7.0 mi NNW 8.1 mph - N/A   Overcast
10:55 AM -2.9 °F -11.2 °F -11.2 °F 68% 30.43 in 10.0 mi North 3.5 mph - N/A   Overcast
11:15 AM -2.2 °F -18.0 °F -10.8 °F 67% 30.43 in 10.0 mi NW 9.2 mph - N/A   Overcast
11:35 AM -1.5 °F -13.3 °F -11.2 °F 63% 30.43 in 10.0 mi NNW 5.8 mph - N/A   Overcast
11:55 AM -2.2 °F -15.6 °F -10.5 °F 68% 30.42 in 7.0 mi NNW 6.9 mph - N/A   Overcast
12:15 PM -2.9 °F - -12.3 °F 64% 30.42 in 10.0 mi Calm Calm - N/A   Mostly Cloudy
12:35 PM -2.2 °F -14.2 °F -11.6 °F 64% 30.42 in 10.0 mi West 5.8 mph - N/A   Mostly Cloudy
12:55 PM -1.8 °F -15.2 °F -12.1 °F 62% 30.41 in 10.0 mi WNW 6.9 mph - N/A   Mostly Cloudy
1:15 PM -2.4 °F -15.8 °F -11.4 °F 66% 30.41 in 10.0 mi NW 6.9 mph - N/A   Scattered Clouds
1:35 PM -1.5 °F -16.0 °F -11.7 °F 62% 30.40 in 10.0 mi NW 8.1 mph - N/A   Mostly Cloudy
1:55 PM -1.8 °F -12.0 °F -11.4 °F 64% 30.39 in 10.0 mi NNW 4.6 mph - N/A   Scattered Clouds
2:15 PM -1.5 °F -17.1 °F -11.9 °F 61% 30.39 in 10.0 mi NW 9.2 mph - N/A   Clear
2:35 PM -2.4 °F -15.8 °F -12.3 °F 63% 30.38 in 10.0 mi West 6.9 mph - N/A   Scattered Clouds
2:55 PM -1.3 °F -16.8 °F -12.1 °F 60% 30.39 in 10.0 mi West 9.2 mph - N/A   Mostly Cloudy
3:15 PM -2.0 °F -16.6 °F -12.1 °F 62% 30.39 in 10.0 mi West 8.1 mph - N/A   Scattered Clouds
3:35 PM -1.5 °F -16.0 °F -11.9 °F 61% 30.38 in 10.0 mi WSW 8.1 mph - N/A   Clear
3:55 PM -1.7 °F -16.2 °F -12.1 °F 61% 30.37 in 10.0 mi WSW 8.1 mph - N/A   Clear
4:15 PM -2.0 °F -15.4 °F -11.9 °F 63% 30.37 in 10.0 mi WSW 6.9 mph - N/A   Clear
4:35 PM -2.7 °F -14.8 °F -12.3 °F 64% 30.36 in 10.0 mi WSW 5.8 mph - N/A   Clear
4:55 PM -4.0 °F -14.6 °F -12.5 °F 67% 30.35 in 10.0 mi WSW 4.6 mph - N/A   Clear
5:15 PM -4.7 °F -15.4 °F -13.0 °F 68% 30.34 in 10.0 mi WSW 4.6 mph - N/A   Clear
5:35 PM -5.3 °F -17.8 °F -13.5 °F 67% 30.34 in 10.0 mi WSW 5.8 mph - N/A   Clear
5:55 PM -6.2 °F -18.9 °F -14.6 °F 67% 30.32 in 10.0 mi WSW 5.8 mph - N/A   Clear
6:15 PM -6.7 °F -22.3 °F -14.8 °F 68% 30.31 in 10.0 mi SW 8.1 mph - N/A   Clear
6:35 PM -7.2 °F -21.7 °F -15.7 °F 67% 30.31 in 10.0 mi WSW 6.9 mph - N/A   Clear
6:55 PM -8.0 °F -21.0 °F -15.9 °F 68% 30.30 in 10.0 mi WSW 5.8 mph - N/A   Clear
7:15 PM -8.7 °F -24.7 °F -16.4 °F 69% 30.29 in 10.0 mi SW 8.1 mph - N/A   Clear
7:35 PM -8.9 °F -23.6 °F -16.8 °F 68% 30.29 in 10.0 mi WSW 6.9 mph - N/A   Clear
7:55 PM -9.2 °F -26.6 °F -17.3 °F 68% 30.27 in 10.0 mi SW 9.2 mph - N/A   Clear
8:35 PM -10.3 °F -26.7 °F -18.4 °F 67% 30.23 in 10.0 mi SW 8.1 mph - N/A   Clear
8:55 PM -10.5 °F -26.9 °F -18.4 °F 68% 30.22 in 10.0 mi SSW 8.1 mph - N/A   Clear
9:15 PM -11.0 °F -29.9 °F -18.4 °F 70% 30.20 in 10.0 mi SW 10.4 mph - N/A   Clear
9:55 PM -12.1 °F -28.9 °F -18.8 °F 72% 30.18 in 10.0 mi SW 8.1 mph - N/A   Clear
10:15 PM -12.5 °F -30.6 °F -19.1 °F 72% 30.16 in 10.0 mi SW 9.2 mph - N/A   Clear
10:35 PM -12.5 °F -32.7 °F -18.8 °F 74% 30.14 in 10.0 mi SSW 11.5 mph - N/A   Clear
10:55 PM -12.1 °F -31.3 °F -18.4 °F 74% 30.12 in 10.0 mi SSW 10.4 mph - N/A   Clear
11:15 PM -12.1 °F -31.3 °F -18.0 °F 75% 30.10 in 10.0 mi SSW 10.4 mph - N/A   Clear
11:35 PM -12.3 °F -31.5 °F -18.4 °F 74% 30.07 in 10.0 mi SSW 10.4 mph - N/A   Clear
11:55 PM -12.1 °F -30.1 °F -18.4 °F 74% 30.05 in 10.0 mi SSW 9.2 mph - N/A   Clear